Location: Unspecified
(0.0000°N, 0.0000°E)
Time: 02:57:07
(UTC+00:00)

Vanguard 2 - Pass Details

Date: 22 December 2018
Orbit: 553 x 2939 km, 32.9° (Epoch: 18 March)

Event Time Altitude Azimuth Distance (km) Brightness Sun altitude
Rises 08:25:02 0° 226° (SW) 6,792 12.2 33.2°
Reaches altitude 10° 08:33:14 10° 206° (SSW) 5,620 12.1 35.0°
Maximum altitude 08:41:26 15° 176° (S) 4,826 12.2 36.8°
Drops below altitude 10° 08:48:32 10° 145° (SE) 4,770 12.6 38.3°
Sets 08:54:18 0° 123° (ESE) 5,274 12.7 39.5°
